Change the Weather History Date:

Saturday, March 1, 2014

  Actual Average (KTCM) Record (KTCM)
Temperature  
Mean Temperature 40 °F -  
Max Temperature 44 °F 48 °F 64 °F (1968)
Min Temperature 37 °F 31 °F 19 °F (1960)
Degree Days  
Heating Degree Days 24    
Moisture  
Dew Point 35 °F    
Average Humidity 79    
Maximum Humidity 93    
Minimum Humidity 57    
Precipitation  
Precipitation 0.01 in - - ()
Sea Level Pressure  
Sea Level Pressure 29.63 in    
Wind  
Wind Speed 0 mph (ENE)    
Max Wind Speed 4 mph    
Max Gust Speed -    
Visibility 10 miles    
Events Rain    
Averages and records for this station are not official NWS values.
T = Trace of Precipitation, MM = Missing Value Source: NWS Daily Summary

Daily Weather History Graph

Daily Weather History Graph

Search for Another Location

Airport or City:

Trip Planner

Search our weather history database for the weather conditions in past years. The results will help you decide how hot, cold, wet, or windy it might be!

Date:

Astronomy

Mar. 01, 2014 Rise Set
Actual Time 6:48 AM PST 5:54 PM PST
Civil Twilight 6:18 AM PST 6:25 PM PST
Nautical Twilight 5:43 AM PST 7:00 PM PST
Astronomical Twilight 5:07 AM PST 7:36 PM PST
Moon 6:42 AM PST (3/1) 6:54 PM PST (3/1)
Length of Visible Light 12h 07m
Length of Day
11h 05m
New Moon, 0% of the Moon is Illuminated
Mar 1
New Moon
Mar 8
First Quarter
Mar 16
Full
Mar 23
Last Quarter
Mar 30
New

Hourly Weather History & Observations

Time (PST) Temp. Windchill Dew Point Humidity Pressure Visibility Wind Dir Wind Speed Gust Speed Precip Events Conditions
12:15 AM 41.0 °F - 30.2 °F 65% 29.53 in 10.0 mi Calm Calm - N/A   Unknown
12:35 AM 41.0 °F - 32.0 °F 70% 29.53 in 10.0 mi Calm Calm - N/A   Unknown
12:55 AM 39.2 °F - 32.0 °F 75% 29.54 in 10.0 mi Calm Calm - N/A   Unknown
1:15 AM 39.2 °F - 32.0 °F 75% 29.54 in 10.0 mi Calm Calm - N/A   Unknown
1:35 AM 39.2 °F - 33.8 °F 81% 29.54 in 10.0 mi Calm Calm - N/A   Unknown
1:55 AM 39.2 °F - 33.8 °F 81% 29.55 in 10.0 mi Calm Calm - N/A   Unknown
2:15 AM 39.2 °F - 32.0 °F 75% 29.55 in 10.0 mi Calm Calm - N/A   Unknown
2:35 AM 37.4 °F - 32.0 °F 81% 29.55 in 10.0 mi Calm Calm - N/A   Unknown
2:55 AM 37.4 °F - 32.0 °F 81% 29.55 in 10.0 mi Calm Calm - N/A   Unknown
3:15 AM 37.4 °F - 32.0 °F 81% 29.55 in 10.0 mi Calm Calm - N/A   Unknown
3:35 AM 37.4 °F - 33.8 °F 87% 29.55 in 10.0 mi Calm Calm - N/A   Unknown
4:00 AM 37.4 °F - 35.6 °F 93% 29.56 in 10.0 mi Calm Calm - N/A   Unknown
4:15 AM 37.4 °F - 35.6 °F 93% 29.56 in 10.0 mi Calm Calm - N/A   Unknown
4:35 AM 37.4 °F - 35.6 °F 93% 29.56 in 10.0 mi Calm Calm - N/A   Unknown
4:55 AM 37.4 °F - 35.6 °F 93% 29.57 in 10.0 mi Calm Calm - N/A   Unknown
5:15 AM 37.4 °F - 35.6 °F 93% 29.58 in 10.0 mi Calm Calm - N/A   Unknown
5:35 AM 39.2 °F - 35.6 °F 87% 29.58 in 10.0 mi Calm Calm - N/A   Unknown
5:55 AM 39.2 °F - 35.6 °F 87% 29.58 in 10.0 mi Calm Calm - N/A   Unknown
6:15 AM 39.2 °F - 35.6 °F 87% 29.59 in 10.0 mi Calm Calm - N/A   Unknown
6:35 AM 39.2 °F - 35.6 °F 87% 29.59 in 10.0 mi Calm Calm - N/A   Unknown
6:55 AM 39.2 °F - 35.6 °F 87% 29.60 in 10.0 mi Calm Calm - N/A   Unknown
7:15 AM 39.2 °F - 35.6 °F 87% 29.60 in 10.0 mi Calm Calm - N/A   Unknown
7:35 AM 39.2 °F - 35.6 °F 87% 29.62 in 10.0 mi Calm Calm - N/A   Unknown
7:55 AM 39.2 °F - 35.6 °F 87% 29.62 in 10.0 mi Calm Calm - N/A   Unknown
8:15 AM 41.0 °F - 32.0 °F 70% 29.63 in 10.0 mi Calm Calm - N/A   Unknown
8:40 AM 41.0 °F - 33.8 °F 76% 29.64 in 10.0 mi Calm Calm - N/A   Unknown
8:55 AM 41.0 °F - 35.6 °F 81% 29.64 in 10.0 mi Calm Calm - N/A   Unknown
9:15 AM 41.0 °F - 35.6 °F 81% 29.65 in 10.0 mi Calm Calm - N/A   Unknown
9:35 AM 41.0 °F - 35.6 °F 81% 29.65 in 10.0 mi Calm Calm - N/A   Unknown
9:55 AM 41.0 °F - 35.6 °F 81% 29.65 in 10.0 mi Calm Calm - N/A   Unknown
10:15 AM 41.0 °F - 33.8 °F 76% 29.66 in 10.0 mi Calm Calm - N/A   Unknown
10:35 AM 41.0 °F - 35.6 °F 81% 29.66 in 10.0 mi Calm Calm - N/A Rain Light Rain
10:55 AM 42.8 °F - 35.6 °F 76% 29.66 in 10.0 mi Calm Calm - N/A   Unknown
11:15 AM 44.6 °F 43.1 °F 33.8 °F 66% 29.67 in 10.0 mi NE 3.5 mph - N/A   Unknown
11:35 AM 44.6 °F 43.1 °F 32.0 °F 61% 29.66 in 10.0 mi East 3.5 mph - N/A   Unknown
11:55 AM 44.6 °F 43.1 °F 32.0 °F 61% 29.66 in 10.0 mi East 3.5 mph - N/A   Unknown
12:15 PM 44.6 °F - 30.2 °F 57% 29.66 in 10.0 mi Calm Calm - N/A   Unknown
12:35 PM 44.6 °F - 30.2 °F 57% 29.66 in 10.0 mi Calm Calm - N/A   Unknown
12:55 PM 42.8 °F - 37.4 °F 81% 29.65 in 5.0 mi Calm Calm - 0.01 in Rain Light Rain
1:15 PM 41.0 °F - 37.4 °F 87% 29.65 in 10.0 mi Calm Calm - N/A   Unknown
1:35 PM 42.8 °F - 35.6 °F 76% 29.65 in 10.0 mi Calm Calm - N/A   Unknown
1:55 PM 42.8 °F 41.1 °F 33.8 °F 70% 29.65 in 10.0 mi NE 3.5 mph - N/A   Unknown
2:15 PM 42.8 °F - 33.8 °F 70% 29.65 in 10.0 mi Calm Calm - N/A   Unknown
2:35 PM 42.8 °F - 33.8 °F 70% 29.65 in 10.0 mi Calm Calm - N/A   Unknown
2:55 PM 44.6 °F - 33.8 °F 66% 29.65 in 10.0 mi Calm Calm - N/A   Unknown
3:15 PM 42.8 °F - 33.8 °F 70% 29.65 in 10.0 mi Calm Calm - N/A   Unknown
3:35 PM 44.6 °F - 33.8 °F 66% 29.65 in 10.0 mi Calm Calm - N/A   Unknown
3:55 PM 44.6 °F - 33.8 °F 66% 29.65 in 10.0 mi Calm Calm - N/A   Unknown
4:15 PM 44.6 °F - 33.8 °F 66% 29.64 in 10.0 mi Calm Calm - N/A   Unknown
4:35 PM 44.6 °F - 33.8 °F 66% 29.64 in 10.0 mi Calm Calm - N/A   Unknown
4:55 PM 44.6 °F - 33.8 °F 66% 29.63 in 10.0 mi Calm Calm - N/A   Unknown
5:15 PM 42.8 °F - 33.8 °F 70% 29.63 in 10.0 mi Calm Calm - N/A   Unknown
5:35 PM 42.8 °F - 35.6 °F 76% 29.64 in 10.0 mi Calm Calm - N/A   Unknown
5:55 PM 42.8 °F - 35.6 °F 76% 29.64 in 10.0 mi Calm Calm - N/A   Unknown
6:15 PM 42.8 °F - 35.6 °F 76% 29.64 in 10.0 mi Calm Calm - N/A   Unknown
6:35 PM 41.0 °F - 35.6 °F 81% 29.64 in 10.0 mi Calm Calm - N/A   Unknown
6:55 PM 41.0 °F - 35.6 °F 81% 29.65 in 10.0 mi Calm Calm - N/A   Unknown
7:15 PM 41.0 °F - 35.6 °F 81% 29.66 in 10.0 mi Calm Calm - N/A   Unknown
7:35 PM 41.0 °F - 35.6 °F 81% 29.66 in 10.0 mi Calm Calm - N/A   Unknown
7:55 PM 41.0 °F - 37.4 °F 87% 29.65 in 10.0 mi Calm Calm - N/A   Unknown
8:15 PM 41.0 °F - 35.6 °F 81% 29.65 in 10.0 mi Calm Calm - N/A   Unknown
8:35 PM 41.0 °F - 37.4 °F 87% 29.65 in 10.0 mi Calm Calm - N/A   Unknown
8:55 PM 41.0 °F - 35.6 °F 81% 29.66 in 10.0 mi Calm Calm - N/A   Unknown
9:15 PM 41.0 °F - 37.4 °F 87% 29.67 in 10.0 mi Calm Calm - N/A   Unknown
9:35 PM 41.0 °F - 37.4 °F 87% 29.67 in 10.0 mi Calm Calm - N/A   Unknown
9:55 PM 41.0 °F - 37.4 °F 87% 29.68 in 10.0 mi Calm Calm - N/A   Unknown
10:15 PM 41.0 °F - 37.4 °F 87% 29.68 in 10.0 mi Calm Calm - N/A   Unknown
10:35 PM 41.0 °F - 37.4 °F 87% 29.68 in 10.0 mi Calm Calm - N/A   Unknown
10:55 PM 41.0 °F - 35.6 °F 81% 29.68 in 10.0 mi Calm Calm - N/A   Unknown
11:15 PM 41.0 °F - 35.6 °F 81% 29.68 in 10.0 mi Calm Calm - N/A   Unknown
11:35 PM 41.0 °F - 35.6 °F 81% 29.68 in 10.0 mi Calm Calm - N/A   Unknown
11:55 PM 41.0 °F - 35.6 °F 81% 29.68 in 10.0 mi Calm Calm - N/A   Unknown